Tracking 30306 objects as of 23-Apr-2025
HD Live streaming from Space Station
objects crossing your sky now

SL-14 DEB

Track SL-14 DEB now!
10-day predictions


NORAD ID: 19174
Int'l Code: 1978-100R
Perigee: 1,470.0 km
Apogee: 1,709.8 km
Inclination: 81.9 °
Period: 117.8 minutes
Semi major axis: 7960 km
RCS: 0.0241 m2 (small)
Launch date: October 26, 1978
Source: Commonwealth of Independent States (former USSR) (CIS)
Launch site: PLESETSK MISSILE AND SPACE COMPLEX (PKMTR)

Note: This is SATELLITE DEBRIS
Your satellite tracking list
Your tracking list is empty




NASA's NSSDC Master Catalog

Two Line Element Set (TLE):
1 19174U 78100R   25110.75982727  .00000132  00000-0  11318-2 0  9996
2 19174  81.9010 299.2344 0150605 297.7169 192.5759 12.22253960647102
Source of the keplerian elements: AFSPC